EZY45WJ EGAC-EGGW

Flight info

Callsign EZY45WJ
Flight time 0h 57m
Altitude 31000
Route DUFFY L10 RINGA Q39 BABGU DCT ETIGA DCT INKOB Q39 NOMSU UQ4 LISTO
Aircraft A320/M-SDE2E3FGHIJ1RWXYZ/LB1

Departure

Time 2026-04-29 18:56
Airport George Best Belfast City Airport (EGAC)

Arrival

Time 2026-04-29 19:54
Airport London Luton Airport (EGGW)
Time Latitude Longitude Altitude Speed Heading
2026-04-29 18:33 54.61538 -5.87096 22 ft 0 kts 124°
2026-04-29 18:49 54.61545 -5.87115 22 ft 4 kts 124°
2026-04-29 18:49 54.61562 -5.87149 21 ft 4 kts 151°
2026-04-29 18:49 54.61585 -5.87157 22 ft 4 kts 206°
2026-04-29 18:50 54.61591 -5.87152 21 ft 0 kts 215°
2026-04-29 18:51 54.61589 -5.87154 22 ft 2 kts 215°
2026-04-29 18:52 54.61554 -5.87194 21 ft 9 kts 214°
2026-04-29 18:52 54.61506 -5.87250 21 ft 8 kts 213°
2026-04-29 18:52 54.61465 -5.87297 21 ft 6 kts 213°
2026-04-29 18:52 54.61428 -5.87343 21 ft 9 kts 223°
2026-04-29 18:53 54.61386 -5.87438 21 ft 10 kts 229°
2026-04-29 18:53 54.61338 -5.87504 21 ft 8 kts 216°
2026-04-29 18:53 54.61295 -5.87555 21 ft 7 kts 213°
2026-04-29 18:53 54.61238 -5.87620 21 ft 15 kts 213°
2026-04-29 18:54 54.61158 -5.87711 21 ft 13 kts 213°
2026-04-29 18:54 54.61091 -5.87795 21 ft 11 kts 230°
2026-04-29 18:54 54.61089 -5.87909 22 ft 9 kts 292°
2026-04-29 18:54 54.61121 -5.87996 21 ft 8 kts 304°
2026-04-29 18:55 54.61154 -5.88038 21 ft 5 kts 13°
2026-04-29 18:55 54.61171 -5.88017 21 ft 0 kts 38°
2026-04-29 18:55 54.61190 -5.87992 21 ft 25 kts 36°
2026-04-29 18:56 54.61571 -5.87537 20 ft 103 kts 34°
2026-04-29 18:56 54.62318 -5.86654 163 ft 145 kts 37°
2026-04-29 18:56 54.63147 -5.85687 898 ft 143 kts 38°
2026-04-29 18:56 54.64075 -5.84956 1527 ft 163 kts 13°
2026-04-29 18:57 54.65277 -5.85485 1841 ft 199 kts 331°
2026-04-29 18:57 54.66461 -5.86924 2123 ft 220 kts 339°
2026-04-29 18:57 54.67987 -5.87243 2433 ft 225 kts 24°
2026-04-29 18:57 54.69249 -5.85691 2840 ft 230 kts 63°
2026-04-29 18:58 54.69595 -5.83050 3521 ft 231 kts 99°
2026-04-29 18:58 54.69067 -5.80431 4317 ft 235 kts 123°
2026-04-29 18:58 54.67843 -5.78535 5131 ft 244 kts 151°
2026-04-29 18:58 54.66290 -5.77289 5990 ft 248 kts 153°
2026-04-29 18:59 54.64701 -5.76066 6840 ft 252 kts 154°
2026-04-29 18:59 54.63106 -5.74847 7650 ft 256 kts 154°
2026-04-29 18:59 54.61448 -5.73581 8504 ft 259 kts 153°
2026-04-29 18:59 54.59791 -5.72313 9379 ft 261 kts 153°
2026-04-29 19:00 54.58142 -5.71048 10229 ft 264 kts 153°
2026-04-29 19:00 54.56442 -5.69746 10827 ft 276 kts 153°
2026-04-29 19:00 54.54617 -5.68343 11070 ft 298 kts 153°
2026-04-29 19:00 54.52691 -5.66866 11634 ft 307 kts 153°
2026-04-29 19:01 54.50726 -5.65369 12365 ft 310 kts 153°
2026-04-29 19:01 54.48744 -5.63864 13128 ft 313 kts 153°
2026-04-29 19:01 54.46745 -5.62346 13871 ft 315 kts 153°
2026-04-29 19:01 54.44728 -5.60819 14557 ft 318 kts 153°
2026-04-29 19:02 54.42698 -5.59277 15191 ft 320 kts 153°
2026-04-29 19:02 54.41351 -5.58123 15611 ft 320 kts 147°
2026-04-29 19:02 54.39064 -5.54934 16457 ft 322 kts 132°
2026-04-29 19:02 54.37712 -5.51852 17092 ft 325 kts 125°
2026-04-29 19:03 54.36426 -5.48651 17771 ft 327 kts 125°
2026-04-29 19:03 54.35129 -5.45439 18439 ft 328 kts 125°
2026-04-29 19:03 54.33820 -5.42217 18995 ft 331 kts 126°
2026-04-29 19:03 54.32497 -5.38970 19502 ft 334 kts 126°
2026-04-29 19:04 54.31161 -5.35697 20016 ft 337 kts 126°
2026-04-29 19:04 54.29809 -5.32397 20490 ft 341 kts 126°
2026-04-29 19:04 54.28440 -5.29057 20956 ft 345 kts 126°
2026-04-29 19:04 54.27034 -5.25715 21439 ft 348 kts 128°
2026-04-29 19:05 54.25537 -5.22448 21911 ft 351 kts 130°
2026-04-29 19:05 54.23980 -5.19215 22380 ft 354 kts 130°
2026-04-29 19:05 54.22392 -5.15987 22865 ft 356 kts 131°
2026-04-29 19:05 54.20786 -5.12736 23330 ft 359 kts 131°
2026-04-29 19:06 54.19174 -5.09455 23786 ft 362 kts 131°
2026-04-29 19:06 54.17552 -5.06138 24183 ft 365 kts 131°
2026-04-29 19:06 54.14291 -4.99421 24949 ft 370 kts 130°
2026-04-29 19:07 54.12643 -4.96018 25270 ft 374 kts 131°
2026-04-29 19:07 54.12105 -4.94906 25372 ft 376 kts 131°
2026-04-29 19:07 54.09302 -4.89113 25965 ft 380 kts 131°
2026-04-29 19:07 54.07610 -4.85633 26332 ft 382 kts 131°
2026-04-29 19:08 54.05910 -4.82140 26692 ft 384 kts 131°
2026-04-29 19:08 54.04200 -4.78624 27050 ft 387 kts 131°
2026-04-29 19:08 54.02523 -4.75029 27396 ft 389 kts 130°
2026-04-29 19:08 54.00878 -4.71350 27677 ft 393 kts 129°
2026-04-29 19:09 53.99261 -4.67658 27985 ft 396 kts 129°
2026-04-29 19:09 53.97615 -4.63880 28322 ft 399 kts 129°
2026-04-29 19:09 53.95932 -4.60040 28658 ft 401 kts 129°
2026-04-29 19:09 53.94251 -4.56248 28990 ft 403 kts 129°
2026-04-29 19:10 53.92551 -4.52451 29317 ft 405 kts 129°
2026-04-29 19:10 53.90859 -4.48696 29653 ft 407 kts 130°
2026-04-29 19:10 53.89133 -4.44877 30010 ft 408 kts 130°
2026-04-29 19:10 53.87403 -4.41052 30339 ft 410 kts 130°
2026-04-29 19:11 53.85695 -4.37169 30602 ft 412 kts 128°
2026-04-29 19:11 53.84041 -4.33200 30859 ft 414 kts 127°
2026-04-29 19:11 53.82416 -4.29167 31118 ft 415 kts 127°
2026-04-29 19:11 53.80805 -4.25114 31270 ft 414 kts 126°
2026-04-29 19:12 53.79220 -4.21134 31308 ft 399 kts 127°
2026-04-29 19:12 53.76150 -4.13547 31303 ft 388 kts 127°
2026-04-29 19:13 53.73060 -4.06070 31307 ft 388 kts 128°
2026-04-29 19:13 53.69957 -3.98617 31307 ft 388 kts 128°
2026-04-29 19:14 53.66859 -3.91169 31309 ft 387 kts 127°
2026-04-29 19:14 53.64308 -3.85022 31304 ft 384 kts 127°
2026-04-29 19:15 53.61243 -3.77654 31300 ft 383 kts 128°
2026-04-29 19:15 53.58173 -3.70320 31308 ft 383 kts 128°
2026-04-29 19:16 53.55098 -3.63005 31305 ft 383 kts 128°
2026-04-29 19:16 53.52020 -3.55702 31288 ft 383 kts 127°
2026-04-29 19:17 53.48935 -3.48403 31292 ft 383 kts 127°
2026-04-29 19:17 53.46149 -3.40767 31294 ft 387 kts 115°
2026-04-29 19:18 53.44055 -3.32450 31295 ft 387 kts 116°
2026-04-29 19:18 53.41939 -3.24146 31317 ft 387 kts 116°
2026-04-29 19:19 53.39809 -3.15851 31327 ft 387 kts 116°
2026-04-29 19:19 53.37762 -3.07496 31305 ft 388 kts 113°
2026-04-29 19:20 53.35892 -2.98985 31318 ft 391 kts 112°
2026-04-29 19:20 53.34032 -2.90421 31324 ft 392 kts 112°
2026-04-29 19:21 53.32118 -2.81871 31326 ft 393 kts 113°
2026-04-29 19:21 53.30149 -2.73355 31317 ft 392 kts 116°
2026-04-29 19:22 53.27752 -2.65176 31328 ft 392 kts 118°
2026-04-29 19:22 53.25347 -2.56994 31331 ft 392 kts 118°
2026-04-29 19:23 53.22946 -2.48871 31317 ft 393 kts 118°
2026-04-29 19:23 53.20522 -2.40682 31331 ft 394 kts 117°
2026-04-29 19:24 53.18092 -2.32498 31333 ft 394 kts 117°
2026-04-29 19:24 53.15630 -2.24341 31335 ft 393 kts 121°
2026-04-29 19:25 53.12193 -2.17354 31333 ft 391 kts 140°
2026-04-29 19:25 53.07825 -2.11958 31336 ft 391 kts 143°
2026-04-29 19:26 53.03437 -2.06631 31335 ft 391 kts 143°
2026-04-29 19:26 52.99050 -2.01305 31343 ft 390 kts 143°
2026-04-29 19:27 52.94663 -1.95993 31342 ft 391 kts 143°
2026-04-29 19:27 52.90271 -1.90686 31334 ft 391 kts 143°
2026-04-29 19:27 52.88082 -1.88047 31130 ft 385 kts 143°
2026-04-29 19:28 52.85938 -1.85473 30881 ft 377 kts 143°
2026-04-29 19:28 52.83821 -1.82936 30625 ft 374 kts 143°
2026-04-29 19:28 52.81718 -1.80415 30397 ft 372 kts 142°
2026-04-29 19:28 52.79627 -1.77908 30110 ft 371 kts 142°
2026-04-29 19:29 52.77547 -1.75413 29829 ft 369 kts 142°
2026-04-29 19:29 52.75473 -1.72930 29549 ft 368 kts 143°
2026-04-29 19:29 52.73292 -1.70759 29176 ft 364 kts 150°
2026-04-29 19:29 52.71062 -1.68840 28771 ft 359 kts 150°
2026-04-29 19:30 52.68862 -1.66949 28340 ft 354 kts 150°
2026-04-29 19:30 52.66692 -1.65086 27921 ft 350 kts 150°
2026-04-29 19:30 52.64546 -1.63245 27496 ft 346 kts 150°
2026-04-29 19:30 52.62424 -1.61423 27083 ft 342 kts 150°
2026-04-29 19:31 52.60325 -1.59620 26659 ft 339 kts 150°
2026-04-29 19:31 52.58244 -1.57836 26256 ft 336 kts 150°
2026-04-29 19:31 52.56180 -1.56067 25839 ft 333 kts 150°
2026-04-29 19:31 52.54129 -1.54314 25422 ft 331 kts 151°
2026-04-29 19:32 52.52117 -1.52596 25002 ft 329 kts 151°
2026-04-29 19:32 52.50087 -1.50866 24709 ft 328 kts 151°
2026-04-29 19:32 52.48064 -1.49142 24253 ft 327 kts 150°
2026-04-29 19:32 52.46049 -1.47425 23818 ft 326 kts 151°
2026-04-29 19:33 52.44036 -1.45715 23338 ft 324 kts 151°
2026-04-29 19:33 52.42039 -1.44023 22918 ft 322 kts 151°
2026-04-29 19:33 52.40060 -1.42347 22507 ft 319 kts 150°
2026-04-29 19:33 52.38096 -1.40680 22101 ft 317 kts 150°
2026-04-29 19:34 52.36145 -1.39023 21693 ft 315 kts 150°
2026-04-29 19:34 52.34205 -1.37383 21292 ft 313 kts 150°
2026-04-29 19:34 52.32277 -1.35757 20891 ft 311 kts 150°
2026-04-29 19:34 52.30354 -1.34136 20498 ft 310 kts 150°
2026-04-29 19:35 52.28450 -1.32489 20141 ft 311 kts 148°
2026-04-29 19:35 52.26563 -1.30738 19847 ft 312 kts 147°
2026-04-29 19:35 52.24689 -1.28948 19527 ft 311 kts 147°
2026-04-29 19:35 52.22825 -1.27158 19209 ft 310 kts 147°
2026-04-29 19:36 52.20968 -1.25378 18896 ft 309 kts 147°
2026-04-29 19:36 52.19114 -1.23611 18580 ft 308 kts 147°
2026-04-29 19:36 52.17268 -1.21862 18244 ft 306 kts 147°
2026-04-29 19:36 52.15427 -1.20126 17927 ft 305 kts 147°
2026-04-29 19:37 52.13594 -1.18402 17600 ft 303 kts 147°
2026-04-29 19:37 52.12387 -1.17268 17351 ft 302 kts 147°
2026-04-29 19:37 52.09965 -1.14998 16869 ft 299 kts 147°
2026-04-29 19:37 52.08186 -1.13337 16483 ft 298 kts 147°
2026-04-29 19:38 52.06345 -1.11619 15705 ft 311 kts 148°
2026-04-29 19:38 52.04460 -1.09860 15211 ft 313 kts 148°
2026-04-29 19:38 52.02604 -1.08037 14782 ft 310 kts 141°
2026-04-29 19:38 52.01121 -1.05495 14418 ft 306 kts 122°
2026-04-29 19:39 52.00267 -1.02356 14040 ft 306 kts 104°
2026-04-29 19:39 52.00107 -0.98971 13623 ft 308 kts 87°
2026-04-29 19:39 52.00354 -0.95523 13179 ft 307 kts 85°
2026-04-29 19:39 52.00607 -0.92086 12758 ft 306 kts 85°
2026-04-29 19:40 52.00858 -0.88666 12361 ft 304 kts 85°
2026-04-29 19:40 52.01096 -0.85267 11975 ft 302 kts 86°
2026-04-29 19:40 52.01328 -0.81895 11596 ft 300 kts 86°
2026-04-29 19:40 52.01559 -0.78539 11201 ft 298 kts 86°
2026-04-29 19:41 52.01786 -0.75218 10921 ft 291 kts 86°
2026-04-29 19:41 52.02004 -0.72042 10722 ft 279 kts 86°
2026-04-29 19:41 52.02219 -0.68943 10489 ft 273 kts 86°
2026-04-29 19:41 52.02431 -0.65894 10188 ft 270 kts 86°
2026-04-29 19:42 52.02640 -0.62871 9833 ft 268 kts 86°
2026-04-29 19:42 52.02780 -0.60843 9600 ft 267 kts 86°
2026-04-29 19:42 52.03048 -0.56908 9140 ft 263 kts 86°
2026-04-29 19:42 52.03186 -0.53962 8789 ft 259 kts 94°
2026-04-29 19:43 52.02703 -0.51208 8469 ft 255 kts 121°
2026-04-29 19:43 52.01445 -0.49216 8115 ft 258 kts 148°
2026-04-29 19:43 51.99698 -0.48469 7743 ft 267 kts 175°
2026-04-29 19:43 51.97866 -0.49190 7351 ft 280 kts 202°
2026-04-29 19:44 51.96372 -0.51280 6954 ft 292 kts 230°
2026-04-29 19:44 51.95373 -0.54179 6527 ft 297 kts 240°
2026-04-29 19:44 51.94485 -0.57205 6089 ft 297 kts 241°
2026-04-29 19:44 51.93614 -0.60238 5687 ft 296 kts 241°
2026-04-29 19:45 51.92746 -0.63257 5267 ft 295 kts 241°
2026-04-29 19:45 51.91887 -0.66267 5004 ft 294 kts 241°
2026-04-29 19:45 51.91029 -0.69279 4998 ft 295 kts 241°
2026-04-29 19:45 51.90170 -0.72288 4999 ft 294 kts 241°
2026-04-29 19:46 51.89313 -0.75301 4991 ft 295 kts 241°
2026-04-29 19:46 51.88335 -0.78192 4992 ft 289 kts 224°
2026-04-29 19:46 51.86836 -0.80102 4987 ft 260 kts 195°
2026-04-29 19:46 51.85197 -0.80554 4991 ft 224 kts 164°
2026-04-29 19:47 51.83886 -0.79637 4990 ft 194 kts 131°
2026-04-29 19:47 51.83247 -0.77868 4875 ft 181 kts 106°
2026-04-29 19:47 51.82945 -0.75879 4569 ft 183 kts 102°
2026-04-29 19:47 51.82692 -0.73853 4263 ft 185 kts 101°
2026-04-29 19:48 51.82450 -0.71824 4058 ft 181 kts 101°
2026-04-29 19:48 51.82296 -0.70521 4004 ft 175 kts 101°
2026-04-29 19:48 51.82064 -0.67984 3800 ft 172 kts 86°
2026-04-29 19:48 51.82354 -0.66074 3473 ft 177 kts 78°
2026-04-29 19:49 51.82695 -0.64164 3229 ft 176 kts 78°
2026-04-29 19:49 51.83028 -0.62287 3070 ft 171 kts 79°
2026-04-29 19:49 51.83347 -0.60473 3009 ft 161 kts 79°
2026-04-29 19:49 51.83640 -0.58812 3011 ft 146 kts 79°
2026-04-29 19:50 51.83903 -0.57309 2913 ft 137 kts 80°
2026-04-29 19:50 51.84157 -0.55855 2770 ft 132 kts 80°
2026-04-29 19:50 51.84404 -0.54440 2609 ft 130 kts 80°
2026-04-29 19:50 51.84645 -0.53054 2473 ft 128 kts 79°
2026-04-29 19:51 51.84885 -0.51684 2287 ft 121 kts 78°
2026-04-29 19:51 51.85102 -0.50442 2131 ft 111 kts 78°
2026-04-29 19:51 51.85306 -0.49269 1966 ft 107 kts 77°
2026-04-29 19:51 51.85507 -0.48114 1840 ft 107 kts 78°
2026-04-29 19:52 51.85708 -0.46959 1696 ft 108 kts 78°
2026-04-29 19:52 51.85917 -0.45755 1533 ft 115 kts 74°
2026-04-29 19:52 51.86137 -0.44485 1380 ft 119 kts 76°
2026-04-29 19:52 51.86358 -0.43178 1195 ft 123 kts 75°
2026-04-29 19:53 51.86589 -0.41845 1021 ft 122 kts 76°
2026-04-29 19:53 51.86824 -0.40504 840 ft 127 kts 73°
2026-04-29 19:53 51.87074 -0.39110 654 ft 131 kts 76°
2026-04-29 19:53 51.87317 -0.37688 551 ft 125 kts 73°
2026-04-29 19:54 51.87566 -0.36256 533 ft 28 kts 74°
2026-04-29 19:54 51.87613 -0.35989 530 ft 16 kts 75°
2026-04-29 19:54 51.87668 -0.35917 530 ft 11 kts 353°
2026-04-29 19:55 51.87740 -0.35955 531 ft 10 kts 335°
2026-04-29 19:55 51.87781 -0.36027 532 ft 8 kts 285°
2026-04-29 19:55 51.87778 -0.36107 532 ft 6 kts 259°
2026-04-29 19:55 51.87768 -0.36165 532 ft 5 kts 253°
2026-04-29 19:56 51.87751 -0.36261 532 ft 19 kts 254°
2026-04-29 19:56 51.87711 -0.36497 533 ft 22 kts 255°
2026-04-29 19:56 51.87673 -0.36720 534 ft 20 kts 254°
2026-04-29 19:56 51.87638 -0.36923 534 ft 18 kts 254°
2026-04-29 19:57 51.87606 -0.37105 535 ft 16 kts 253°
2026-04-29 19:57 51.87586 -0.37218 535 ft 15 kts 253°
2026-04-29 19:57 51.87600 -0.37412 535 ft 13 kts 307°
2026-04-29 19:57 51.87665 -0.37490 536 ft 11 kts 326°
2026-04-29 19:58 51.87717 -0.37621 536 ft 17 kts 294°
2026-04-29 19:58 51.87762 -0.37787 536 ft 15 kts 294°
2026-04-29 19:58 51.87810 -0.37931 537 ft 14 kts 305°
2026-04-29 19:58 51.87884 -0.38006 537 ft 12 kts 345°
2026-04-29 19:59 51.87969 -0.37990 537 ft 15 kts 27°
2026-04-29 19:59 51.88060 -0.37881 536 ft 16 kts 38°
2026-04-29 19:59 51.88108 -0.37820 536 ft 5 kts 38°
2026-04-29 19:59 51.88103 -0.37782 536 ft 5 kts 111°
2026-04-29 20:00 51.88084 -0.37744 536 ft 4 kts 128°